| time (UTC) | temp F | wind direction | speed knots | gust knots | rain 1hr in | rain 24hr in | rain mn in | humidity % | barometer mb |
| 20260506113610 | 49 | 285 | 1.7 | 2.6 | 0.00 | 0.18 | 0.18 | 87 | 1012.9 |
| 20260506113107 | 49 | 33 | 4.3 | 7.0 | 0.05 | 0.18 | 0.18 | 87 | 1013.0 |
| 20260506112603 | 49 | 232 | 2.6 | 2.6 | 0.05 | 0.18 | 0.18 | 87 | 1012.9 |
| 20260506112102 | 49 | 356 | 0.9 | 2.6 | 0.00 | 0.17 | 0.17 | 87 | 1012.8 |
| 20260506111559 | 49 | 186 | 0.9 | 0.9 | 0.00 | 0.17 | 0.17 | 87 | 1012.8 |
| 20260506111056 | 49 | 229 | 0.9 | 1.7 | 0.07 | 0.17 | 0.17 | 87 | 1012.7 |
| 20260506110554 | 50 | 243 | 0.9 | 1.7 | 0.12 | 0.17 | 0.17 | 87 | 1012.7 |
| 20260506110051 | 50 | 221 | 0.0 | 0.0 | 0.12 | 0.16 | 0.16 | 87 | 1012.7 |
| 20260506105547 | 49 | 2 | 2.6 | 2.6 | 0.12 | 0.15 | 0.15 | 87 | 1012.9 |
| 20260506105044 | 48 | 256 | 0.0 | 0.0 | 0.05 | 0.14 | 0.14 | 87 | 1013.0 |
| 20260506104542 | 49 | 10 | 7.0 | 7.8 | 0.07 | 0.13 | 0.13 | 87 | 1012.7 |
| 20260506104040 | 49 | 208 | 0.9 | 0.9 | 0.07 | 0.13 | 0.13 | 87 | 1012.9 |
| 20260506103537 | 49 | 308 | 1.7 | 2.6 | 0.05 | 0.12 | 0.12 | 86 | 1012.7 |
| 20260506103033 | 49 | 16 | 5.2 | 7.0 | 0.05 | 0.12 | 0.12 | 86 | 1012.7 |
| 20260506102532 | 49 | 12 | 3.5 | 5.2 | 0.12 | 0.11 | 0.11 | 86 | 1012.6 |
| 20260506102029 | 49 | 320 | 4.3 | 6.1 | 0.12 | 0.11 | 0.11 | 85 | 1012.5 |
| 20260506101525 | 49 | 271 | 3.5 | 4.3 | 0.07 | 0.09 | 0.09 | 85 | 1012.8 |
| 20260506101023 | 49 | 301 | 6.1 | 7.0 | 0.07 | 0.09 | 0.09 | 85 | 1012.8 |
| 20260506100521 | 50 | 25 | 1.7 | 1.7 | 0.00 | 0.08 | 0.08 | 84 | 1012.7 |
| 20260506100019 | 50 | 229 | 4.3 | 7.8 | 0.00 | 0.08 | 0.08 | 83 | 1012.6 |
| 20260506095517 | 50 | 59 | 9.6 | 11.3 | 0.00 | 0.08 | 0.08 | 83 | 1012.5 |
| 20260506095013 | 50 | 16 | 5.2 | 6.1 | 0.00 | 0.08 | 0.08 | 83 | 1012.4 |
| 20260506094511 | 50 | 18 | 7.8 | 12.2 | 0.00 | 0.08 | 0.08 | 83 | 1012.4 |
| 20260506094009 | 50 | 278 | 3.5 | 5.2 | 0.00 | 0.08 | 0.08 | 83 | 1012.4 |
| 20260506093507 | 50 | 317 | 6.1 | 7.8 | 0.00 | 0.08 | 0.08 | 83 | 1012.0 |
| 20260506093004 | 50 | 291 | 3.5 | 4.3 | 0.00 | 0.08 | 0.08 | 84 | 1012.3 |
| 20260506092502 | 50 | 258 | 2.6 | 2.6 | 0.00 | 0.08 | 0.08 | 84 | 1012.4 |
| 20260506091958 | 50 | 164 | 3.5 | 7.0 | 0.00 | 0.08 | 0.08 | 84 | 1012.5 |
| 20260506091456 | 50 | 268 | 2.6 | 2.6 | 0.00 | 0.08 | 0.08 | 85 | 1012.1 |
| 20260506090953 | 50 | 3 | 7.8 | 12.2 | 0.00 | 0.08 | 0.08 | 85 | 1012.2 |
| 20260506090451 | 49 | 345 | 4.3 | 5.2 | 0.00 | 0.08 | 0.08 | 85 | 1012.1 |
| 20260506085947 | 49 | 21 | 7.8 | 8.7 | 0.00 | 0.08 | 0.08 | 86 | 1012.2 |
| 20260506085444 | 49 | 13 | 2.6 | 2.6 | 0.00 | 0.08 | 0.08 | 86 | 1012.1 |
| 20260506084941 | 49 | 21 | 5.2 | 7.8 | 0.00 | 0.08 | 0.08 | 87 | 1012.3 |
| 20260506084438 | 50 | 356 | 2.6 | 5.2 | 0.00 | 0.08 | 0.08 | 87 | 1012.2 |
| 20260506083933 | 50 | 302 | 2.6 | 6.1 | 0.00 | 0.08 | 0.08 | 87 | 1012.2 |
| 20260506083431 | 50 | 240 | 3.5 | 5.2 | 0.00 | 0.08 | 0.08 | 88 | 1012.2 |
| 20260506082928 | 49 | 2 | 3.5 | 5.2 | 0.05 | 0.08 | 0.08 | 88 | 1012.0 |
| 20260506082425 | 49 | 317 | 3.5 | 4.3 | 0.05 | 0.08 | 0.08 | 88 | 1011.9 |
| 20260506081921 | 49 | 81 | 4.3 | 7.0 | 0.07 | 0.07 | 0.07 | 88 | 1012.1 |
| 20260506081420 | 49 | 344 | 4.3 | 5.2 | 0.07 | 0.07 | 0.07 | 88 | 1012.1 |
| 20260506080916 | 49 | 282 | 4.3 | 5.2 | 0.00 | 0.06 | 0.06 | 88 | 1012.2 |
| 20260506080413 | 49 | 346 | 2.6 | 4.3 | 0.00 | 0.06 | 0.06 | 88 | 1012.1 |
| 20260506073357 | 48 | 314 | 1.7 | 1.7 | 0.12 | 0.05 | 0.05 | 88 | 1011.8 |
| 20260506072854 | 48 | 15 | 0.9 | 1.7 | 0.17 | 0.05 | 0.05 | 88 | 1011.9 |
| 20260506072351 | 48 | 7 | 0.9 | 1.7 | 0.12 | 0.03 | 0.03 | 88 | 1011.9 |
| 20260506071849 | 48 | 351 | 4.3 | 6.1 | 0.07 | 0.02 | 0.02 | 88 | 1011.7 |
| 20260506071347 | 48 | 10 | 4.3 | 7.0 | 0.00 | 0.01 | 0.01 | 88 | 1011.8 |
| 20260506070843 | 48 | 53 | 0.9 | 1.7 | 0.00 | 0.01 | 0.01 | 88 | 1011.9 |
| 20260506070341 | 48 | 3 | 2.6 | 4.3 | 0.00 | 0.01 | 0.01 | 88 | 1011.7 |
| 20260506062318 | 47 | 289 | 0.9 | 0.9 | 0.00 | 0.01 | 0.01 | 88 | 1011.6 |
| 20260506061814 | 47 | 3 | 1.7 | 1.7 | 0.05 | 0.01 | 0.01 | 88 | 1011.8 |
| 20260506061310 | 47 | 252 | 0.9 | 0.9 | 0.05 | 0.01 | 0.01 | 88 | 1011.5 |
| 20260506060809 | 46 | 238 | 0.9 | 0.9 | 0.00 | 0.00 | 0.00 | 88 | 1011.6 |
| 20260506060307 | 46 | 275 | 2.6 | 4.3 | 0.00 | 0.00 | 0.00 | 88 | 1011.6 |
| 20260506051238 | 45 | 317 | 1.7 | 1.7 | 0.00 | 0.00 | 0.00 | 89 | 1011.5 |
| 20260506050736 | 44 | 6 | 2.6 | 2.6 | 0.00 | 0.00 | 0.00 | 89 | 1011.6 |
| 20260506050233 | 44 | 265 | 0.9 | 0.9 | 0.00 | 0.00 | 0.00 | 89 | 1011.7 |
| 20260506044724 | 44 | 265 | 1.7 | 1.7 | 0.00 | 0.00 | 0.00 | 89 | 1011.6 |
| 20260506044221 | 43 | 235 | 0.9 | 1.7 | 0.00 | 0.00 | 0.00 | 88 | 1011.4 |
| 20260506043718 | 43 | 230 | 0.9 | 1.7 | 0.00 | 0.00 | 0.00 | 88 | 1011.5 |
| 20260506043216 | 43 | 266 | 0.9 | 0.9 | 0.00 | 0.00 | 0.00 | 88 | 1011.5 |
| 20260506042715 | 42 | 287 | 1.7 | 1.7 | 0.00 | 0.00 | 0.00 | 88 | 1011.3 |
| 20260506042212 | 42 | 287 | 1.7 | 1.7 | 0.00 | 0.00 | 0.00 | 88 | 1011.4 |
| 20260506041711 | 42 | 282 | 0.9 | 1.7 | 0.00 | 0.00 | 0.00 | 88 | 1011.4 |
| 20260506041208 | 42 | 267 | 1.7 | 2.6 | 0.00 | 0.00 | 0.00 | 88 | 1011.4 |
| 20260506040705 | 42 | 241 | 0.9 | 0.9 | 0.00 | 0.00 | 0.00 | 88 | 1011.6 |
| 20260506040201 | 42 | 271 | 0.9 | 0.9 | 0.00 | 0.00 | 0.00 | 88 | 1011.5 |
| 20260506035658 | 42 | 271 | 0.9 | 0.9 | 0.00 | 0.00 | 0.00 | 88 | 1011.4 |
| 20260506035155 | 42 | 245 | 0.9 | 0.9 | 0.00 | 0.00 | 0.00 | 88 | 1011.6 |
| 20260506034652 | 42 | 294 | 2.6 | 4.3 | 0.00 | 0.00 | 0.00 | 88 | 1011.7 |
| 20260506034149 | 42 | 261 | 1.7 | 1.7 | 0.00 | 0.00 | 0.00 | 88 | 1011.7 |
| 20260506033647 | 42 | 278 | 1.7 | 1.7 | 0.00 | 0.00 | 0.00 | 87 | 1011.8 |
| 20260506033143 | 42 | 281 | 1.7 | 2.6 | 0.00 | 0.00 | 0.00 | 87 | 1011.9 |
| 20260506032641 | 43 | 279 | 1.7 | 1.7 | 0.00 | 0.00 | 0.00 | 87 | 1011.7 |
| 20260506032137 | 43 | 290 | 1.7 | 2.6 | 0.00 | 0.00 | 0.00 | 87 | 1011.7 |
| 20260506031634 | 43 | 250 | 0.9 | 1.7 | 0.00 | 0.00 | 0.00 | 87 | 1011.9 |
| 20260506031131 | 43 | 218 | 0.9 | 1.7 | 0.00 | 0.00 | 0.00 | 87 | 1011.9 |
| 20260506030630 | 43 | 290 | 1.7 | 1.7 | 0.00 | 0.00 | 0.00 | 87 | 1012.1 |
| 20260506030127 | 43 | 282 | 0.9 | 1.7 | 0.00 | 0.00 | 0.00 | 87 | 1012.0 |
| 20260506025623 | 43 | 290 | 2.6 | 2.6 | 0.00 | 0.00 | 0.00 | 87 | 1012.2 |
| 20260506025119 | 43 | 305 | 0.9 | 0.9 | 0.00 | 0.00 | 0.00 | 86 | 1012.1 |
| 20260506024617 | 43 | 317 | 1.7 | 1.7 | 0.00 | 0.00 | 0.00 | 86 | 1012.0 |
| 20260506024113 | 43 | 303 | 0.9 | 0.9 | 0.00 | 0.00 | 0.00 | 86 | 1012.1 |
| 20260506023609 | 43 | 235 | 0.9 | 1.7 | 0.00 | 0.00 | 0.00 | 86 | 1012.2 |
| 20260506023107 | 43 | 252 | 0.9 | 1.7 | 0.00 | 0.00 | 0.00 | 86 | 1012.3 |
| 20260506022604 | 43 | 260 | 0.9 | 0.9 | 0.00 | 0.00 | 0.00 | 86 | 1012.2 |
| 20260506022102 | 44 | 250 | 0.9 | 0.9 | 0.00 | 0.00 | 0.00 | 85 | 1012.2 |
| 20260506021559 | 44 | 223 | 0.0 | 0.0 | 0.00 | 0.00 | 0.00 | 85 | 1012.4 |
| 20260506021056 | 44 | 267 | 0.9 | 0.9 | 0.00 | 0.00 | 0.00 | 85 | 1012.4 |
| 20260506020553 | 44 | 256 | 0.9 | 0.9 | 0.00 | 0.00 | 0.00 | 85 | 1012.2 |
| 20260506020051 | 44 | 247 | 0.9 | 1.7 | 0.00 | 0.00 | 0.00 | 85 | 1012.1 |
| 20260506015548 | 44 | 281 | 0.9 | 1.7 | 0.00 | 0.00 | 0.00 | 85 | 1012.3 |
| 20260506015045 | 44 | 271 | 0.0 | 0.9 | 0.00 | 0.00 | 0.00 | 84 | 1012.4 |
| 20260506014543 | 44 | 252 | 0.0 | 0.9 | 0.00 | 0.00 | 0.00 | 84 | 1012.6 |
| 20260506014038 | 44 | 262 | 1.7 | 1.7 | 0.00 | 0.00 | 0.00 | 84 | 1012.3 |
| 20260506013536 | 45 | 265 | 0.9 | 0.9 | 0.00 | 0.00 | 0.00 | 84 | 1012.4 |
| 20260506013033 | 45 | 244 | 1.7 | 1.7 | 0.00 | 0.00 | 0.00 | 84 | 1012.5 |
| 20260506012529 | 45 | 299 | 1.7 | 1.7 | 0.00 | 0.00 | 0.00 | 84 | 1012.4 |
| 20260506012026 | 45 | 269 | 0.9 | 1.7 | 0.00 | 0.00 | 0.00 | 84 | 1012.5 |
| 20260506011524 | 45 | 247 | 0.0 | 0.9 | 0.00 | 0.00 | 0.00 | 84 | 1012.6 |
| 20260506011020 | 45 | 298 | 0.9 | 1.7 | 0.00 | 0.00 | 0.00 | 84 | 1012.6 |
| 20260506010519 | 46 | 264 | 0.9 | 0.9 | 0.00 | 0.00 | 0.00 | 84 | 1012.5 |
| 20260506010015 | 46 | 290 | 0.9 | 0.9 | 0.00 | 0.00 | 0.00 | 83 | 1012.6 |
| 20260506005513 | 46 | 245 | 0.0 | 0.9 | 0.00 | 0.00 | 0.00 | 83 | 1012.7 |
| 20260506005008 | 46 | 239 | 0.9 | 0.9 | 0.00 | 0.00 | 0.00 | 83 | 1012.6 |
| 20260506004506 | 46 | 252 | 0.9 | 0.9 | 0.00 | 0.00 | 0.00 | 83 | 1012.8 |
| 20260506004002 | 46 | 290 | 0.9 | 1.7 | 0.00 | 0.00 | 0.00 | 83 | 1012.7 |
| 20260506003458 | 46 | 294 | 1.7 | 1.7 | 0.00 | 0.00 | 0.00 | 83 | 1013.0 |
| 20260506002954 | 47 | 246 | 0.9 | 0.9 | 0.00 | 0.00 | 0.00 | 82 | 1012.8 |
| 20260506002451 | 47 | 298 | 1.7 | 2.6 | 0.00 | 0.00 | 0.00 | 82 | 1012.9 |
| 20260506001946 | 47 | 268 | 1.7 | 1.7 | 0.00 | 0.00 | 0.00 | 82 | 1012.7 |
| 20260506001443 | 47 | 1 | 1.7 | 2.6 | 0.00 | 0.00 | 0.00 | 82 | 1012.8 |
| 20260506000941 | 47 | 264 | 1.7 | 1.7 | 0.00 | 0.00 | 0.00 | 82 | 1012.8 |
| 20260506000438 | 48 | 1 | 0.9 | 0.9 | 0.00 | 0.00 | 0.00 | 82 | 1012.8 |
| 20260505235935 | 48 | 280 | 2.6 | 2.6 | 0.00 | 0.00 | 0.00 | 82 | 1013.0 |
| 20260505235433 | 48 | 335 | 0.9 | 1.7 | 0.00 | 0.00 | 0.00 | 83 | 1013.1 |
| 20260505234930 | 48 | 20 | 2.6 | 2.6 | 0.00 | 0.00 | 0.00 | 83 | 1012.9 |
| 20260505234427 | 48 | 288 | 0.9 | 0.9 | 0.00 | 0.00 | 0.00 | 83 | 1012.8 |
| 20260505233924 | 48 | 236 | 0.0 | 0.9 | 0.00 | 0.00 | 0.00 | 83 | 1013.2 |
| 20260505233421 | 48 | 344 | 1.7 | 1.7 | 0.00 | 0.00 | 0.00 | 83 | 1013.0 |
| 20260505232919 | 48 | 7 | 0.9 | 1.7 | 0.00 | 0.00 | 0.00 | 82 | 1013.2 |
| 20260505232417 | 48 | 34 | 0.9 | 2.6 | 0.00 | 0.00 | 0.00 | 82 | 1013.1 |
| 20260505231913 | 48 | 261 | 0.0 | 0.9 | 0.00 | 0.00 | 0.00 | 82 | 1012.8 |
| 20260505231411 | 48 | 336 | 0.9 | 0.9 | 0.00 | 0.00 | 0.00 | 82 | 1013.1 |
| 20260505230909 | 49 | 15 | 2.6 | 2.6 | 0.00 | 0.00 | 0.00 | 82 | 1013.1 |
| 20260505230406 | 49 | 270 | 0.9 | 0.9 | 0.00 | 0.00 | 0.00 | 82 | 1013.2 |
| 20260505225902 | 49 | 277 | 0.9 | 1.7 | 0.00 | 0.00 | 0.00 | 82 | 1013.2 |
| 20260505225400 | 49 | 214 | 0.0 | 0.9 | 0.00 | 0.00 | 0.00 | 82 | 1013.4 |
| 20260505224855 | 49 | 224 | 0.9 | 0.9 | 0.00 | 0.00 | 0.00 | 82 | 1013.3 |
| 20260505224353 | 49 | 275 | 1.7 | 1.7 | 0.00 | 0.00 | 0.00 | 82 | 1013.3 |
| 20260505223849 | 49 | 55 | 2.6 | 2.6 | 0.00 | 0.00 | 0.00 | 82 | 1013.3 |
| 20260505223346 | 49 | 80 | 1.7 | 1.7 | 0.00 | 0.00 | 0.00 | 82 | 1013.3 |
| 20260505222842 | 49 | 48 | 1.7 | 1.7 | 0.00 | 0.00 | 0.00 | 83 | 1013.4 |
| 20260505222338 | 48 | 290 | 0.9 | 0.9 | 0.00 | 0.00 | 0.00 | 83 | 1013.3 |
| 20260505221836 | 48 | 1 | 0.9 | 0.9 | 0.00 | 0.00 | 0.00 | 83 | 1013.5 |
| 20260505221332 | 48 | 126 | 2.6 | 4.3 | 0.00 | 0.00 | 0.00 | 83 | 1013.6 |
| 20260505220829 | 48 | 353 | 2.6 | 5.2 | 0.00 | 0.00 | 0.00 | 83 | 1013.3 |
| 20260505220326 | 48 | 12 | 1.7 | 2.6 | 0.00 | 0.00 | 0.00 | 83 | 1013.4 |
| 20260505215824 | 48 | 222 | 0.9 | 0.9 | 0.00 | 0.00 | 0.00 | 83 | 1013.4 |
| 20260505215322 | 48 | 13 | 0.9 | 2.6 | 0.00 | 0.00 | 0.00 | 83 | 1013.6 |
| 20260505214820 | 48 | 1 | 1.7 | 1.7 | 0.00 | 0.00 | 0.00 | 83 | 1013.3 |
| 20260505214317 | 48 | 36 | 3.5 | 4.3 | 0.00 | 0.00 | 0.00 | 83 | 1013.3 |
| 20260505213814 | 48 | 30 | 4.3 | 5.2 | 0.00 | 0.00 | 0.00 | 83 | 1013.3 |
| 20260505213312 | 48 | 16 | 5.2 | 6.1 | 0.00 | 0.00 | 0.00 | 83 | 1013.3 |
| 20260505212807 | 48 | 358 | 2.6 | 2.6 | 0.00 | 0.00 | 0.00 | 83 | 1013.4 |
| 20260505212306 | 49 | 127 | 2.6 | 2.6 | 0.00 | 0.00 | 0.00 | 82 | 1013.4 |
| 20260505211801 | 49 | 20 | 2.6 | 4.3 | 0.00 | 0.00 | 0.00 | 82 | 1013.0 |
| 20260505211259 | 49 | 5 | 2.6 | 6.1 | 0.00 | 0.00 | 0.00 | 82 | 1013.4 |
| 20260505210755 | 49 | 45 | 1.7 | 2.6 | 0.00 | 0.00 | 0.00 | 82 | 1013.2 |
| 20260505210252 | 49 | 65 | 2.6 | 2.6 | 0.00 | 0.00 | 0.00 | 82 | 1013.5 |
| 20260505205749 | 49 | 336 | 2.6 | 4.3 | 0.00 | 0.00 | 0.00 | 82 | 1013.6 |
| 20260505205247 | 49 | 12 | 2.6 | 2.6 | 0.00 | 0.00 | 0.00 | 82 | 1013.4 |
| 20260505204744 | 49 | 342 | 4.3 | 6.1 | 0.00 | 0.00 | 0.00 | 82 | 1013.4 |
| 20260505204242 | 49 | 33 | 0.9 | 1.7 | 0.00 | 0.00 | 0.00 | 82 | 1013.5 |
| 20260505203738 | 49 | 16 | 3.5 | 4.3 | 0.00 | 0.00 | 0.00 | 82 | 1013.4 |
| 20260505203236 | 49 | 207 | 0.9 | 1.7 | 0.00 | 0.00 | 0.00 | 82 | 1013.6 |
| 20260505202731 | 49 | 331 | 1.7 | 2.6 | 0.00 | 0.00 | 0.00 | 82 | 1013.4 |
| 20260505202227 | 49 | 26 | 0.9 | 1.7 | 0.00 | 0.00 | 0.00 | 81 | 1013.5 |
| 20260505201724 | 49 | 6 | 2.6 | 2.6 | 0.00 | 0.00 | 0.00 | 81 | 1013.5 |
| 20260505201222 | 49 | 359 | 4.3 | 6.1 | 0.00 | 0.00 | 0.00 | 81 | 1013.5 |
| 20260505200720 | 50 | 73 | 0.9 | 0.9 | 0.00 | 0.00 | 0.00 | 81 | 1013.2 |
| 20260505200217 | 50 | 323 | 3.5 | 5.2 | 0.00 | 0.00 | 0.00 | 80 | 1013.2 |
| 20260505195712 | 50 | 8 | 1.7 | 2.6 | 0.00 | 0.00 | 0.00 | 80 | 1013.1 |
| 20260505195210 | 50 | 357 | 0.9 | 2.6 | 0.00 | 0.00 | 0.00 | 80 | 1013.1 |
| 20260505194707 | 50 | 8 | 1.7 | 2.6 | 0.00 | 0.00 | 0.00 | 79 | 1013.2 |
| 20260505194203 | 50 | 18 | 3.5 | 5.2 | 0.00 | 0.00 | 0.00 | 79 | 1013.1 |
| 20260505193659 | 50 | 13 | 0.9 | 0.9 | 0.00 | 0.00 | 0.00 | 79 | 1013.1 |
| 20260505193157 | 50 | 23 | 3.5 | 7.0 | 0.00 | 0.00 | 0.00 | 78 | 1012.9 |
| 20260505192655 | 50 | 115 | 1.7 | 1.7 | 0.00 | 0.00 | 0.00 | 78 | 1013.0 |
| 20260505192152 | 51 | 330 | 3.5 | 5.2 | 0.00 | 0.00 | 0.00 | 77 | 1012.7 |
| 20260505191650 | 51 | 1 | 0.9 | 1.7 | 0.00 | 0.00 | 0.00 | 77 | 1012.8 |
| 20260505191149 | 51 | 26 | 4.3 | 7.8 | 0.00 | 0.00 | 0.00 | 77 | 1012.7 |
| 20260505190644 | 51 | 14 | 4.3 | 6.1 | 0.00 | 0.00 | 0.00 | 77 | 1012.9 |
| 20260505190144 | 51 | 149 | 1.7 | 2.6 | 0.00 | 0.00 | 0.00 | 77 | 1012.7 |
| 20260505185641 | 51 | 14 | 3.5 | 5.2 | 0.00 | 0.00 | 0.00 | 77 | 1013.0 |
| 20260505185137 | 51 | 355 | 3.5 | 5.2 | 0.00 | 0.00 | 0.00 | 77 | 1012.8 |
| 20260505184634 | 51 | 37 | 4.3 | 6.1 | 0.00 | 0.00 | 0.00 | 76 | 1012.8 |
| 20260505184131 | 52 | 332 | 4.3 | 6.1 | 0.00 | 0.00 | 0.00 | 76 | 1012.8 |
| 20260505183628 | 52 | 41 | 2.6 | 2.6 | 0.00 | 0.00 | 0.00 | 75 | 1012.8 |
| 20260505183126 | 52 | 36 | 5.2 | 7.8 | 0.00 | 0.00 | 0.00 | 74 | 1013.0 |
| 20260505182621 | 52 | 0 | 4.3 | 7.0 | 0.00 | 0.00 | 0.00 | 73 | 1012.9 |
| 20260505182118 | 53 | 25 | 3.5 | 4.3 | 0.00 | 0.00 | 0.00 | 72 | 1012.7 |
| 20260505181615 | 53 | 169 | 2.6 | 4.3 | 0.00 | 0.00 | 0.00 | 72 | 1012.6 |
| 20260505181112 | 53 | 157 | 2.6 | 2.6 | 0.00 | 0.00 | 0.00 | 71 | 1012.7 |
| 20260505180608 | 53 | 3 | 2.6 | 4.3 | 0.00 | 0.00 | 0.00 | 71 | 1012.7 |
| 20260505180106 | 53 | 11 | 5.2 | 7.8 | 0.00 | 0.00 | 0.00 | 71 | 1012.7 |
| 20260505175601 | 53 | 213 | 3.5 | 6.1 | 0.00 | 0.00 | 0.00 | 70 | 1012.8 |
| 20260505175058 | 54 | 87 | 4.3 | 6.1 | 0.00 | 0.00 | 0.00 | 70 | 1012.8 |
| 20260505174555 | 54 | 75 | 4.3 | 7.8 | 0.00 | 0.00 | 0.00 | 69 | 1012.6 |
| 20260505174051 | 55 | 250 | 2.6 | 2.6 | 0.00 | 0.00 | 0.00 | 69 | 1012.7 |
| 20260505173548 | 55 | 342 | 5.2 | 7.8 | 0.00 | 0.00 | 0.00 | 68 | 1012.8 |
| 20260505173045 | 54 | 24 | 1.7 | 1.7 | 0.00 | 0.00 | 0.00 | 70 | 1012.7 |
| 20260505172542 | 55 | 344 | 2.6 | 4.3 | 0.00 | 0.00 | 0.00 | 69 | 1012.9 |
| 20260505172039 | 55 | 16 | 5.2 | 6.1 | 0.00 | 0.00 | 0.00 | 69 | 1012.7 |
| 20260505171534 | 54 | 22 | 7.0 | 9.6 | 0.00 | 0.00 | 0.00 | 68 | 1012.5 |
| 20260505171031 | 54 | 11 | 9.6 | 9.6 | 0.00 | 0.00 | 0.00 | 68 | 1012.6 |
| 20260505170528 | 55 | 19 | 3.5 | 5.2 | 0.00 | 0.00 | 0.00 | 69 | 1012.7 |
| 20260505170024 | 55 | 155 | 0.9 | 0.9 | 0.00 | 0.00 | 0.00 | 69 | 1012.7 |
| 20260505165519 | 55 | 4 | 7.8 | 8.7 | 0.00 | 0.00 | 0.00 | 69 | 1012.7 |
| 20260505165015 | 55 | 262 | 2.6 | 4.3 | 0.00 | 0.00 | 0.00 | 69 | 1012.6 |
| 20260505164511 | 55 | 286 | 0.0 | 0.9 | 0.00 | 0.00 | 0.00 | 70 | 1012.7 |
| 20260505164009 | 55 | 90 | 3.5 | 5.2 | 0.00 | 0.00 | 0.00 | 71 | 1012.8 |
| 20260505163507 | 55 | 16 | 5.2 | 7.0 | 0.00 | 0.00 | 0.00 | 70 | 1012.7 |
| 20260505163004 | 56 | 355 | 9.6 | 12.2 | 0.00 | 0.00 | 0.00 | 69 | 1012.4 |
| 20260505162457 | 56 | 93 | 1.7 | 2.6 | 0.00 | 0.00 | 0.00 | 68 | 1012.6 |
| 20260505161954 | 56 | 347 | 4.3 | 7.0 | 0.00 | 0.00 | 0.00 | 69 | 1012.4 |
| 20260505161450 | 55 | 0 | 2.6 | 4.3 | 0.00 | 0.00 | 0.00 | 69 | 1012.6 |
| 20260505160948 | 55 | 39 | 7.0 | 8.7 | 0.00 | 0.00 | 0.00 | 69 | 1012.5 |
| 20260505160446 | 55 | 39 | 4.3 | 6.1 | 0.00 | 0.00 | 0.00 | 68 | 1012.5 |
| 20260505152923 | 57 | 189 | 1.7 | 2.6 | 0.00 | 0.00 | 0.00 | 65 | 1012.4 |
| 20260505152420 | 57 | 5 | 2.6 | 2.6 | 0.00 | 0.00 | 0.00 | 64 | 1012.6 |
| 20260505151920 | 57 | 66 | 3.5 | 4.3 | 0.00 | 0.00 | 0.00 | 64 | 1012.6 |
| 20260505151416 | 57 | 184 | 2.6 | 4.3 | 0.00 | 0.00 | 0.00 | 64 | 1012.7 |
| 20260505150914 | 57 | 25 | 4.3 | 7.0 | 0.00 | 0.00 | 0.00 | 64 | 1012.5 |
| 20260505150410 | 58 | 61 | 1.7 | 1.7 | 0.00 | 0.00 | 0.00 | 63 | 1012.6 |
| 20260505140335 | 59 | 60 | 0.0 | 0.9 | 0.00 | 0.00 | 0.00 | 62 | 1012.7 |
| 20260505130258 | 60 | 65 | 0.9 | 1.7 | 0.00 | 0.00 | 0.00 | 54 | 1012.3 |
| 20260505124748 | 62 | 325 | 2.6 | 2.6 | 0.00 | 0.00 | 0.00 | 49 | 1012.4 |
| 20260505124245 | 63 | 23 | 3.5 | 4.3 | 0.00 | 0.00 | 0.00 | 47 | 1012.4 |
| 20260505123741 | 63 | 48 | 0.9 | 2.6 | 0.00 | 0.00 | 0.00 | 46 | 1012.2 |
| 20260505123238 | 64 | 126 | 0.9 | 0.9 | 0.00 | 0.00 | 0.00 | 45 | 1012.2 |
| 20260505122734 | 63 | 358 | 3.5 | 5.2 | 0.00 | 0.00 | 0.00 | 47 | 1012.2 |
| 20260505122231 | 63 | 209 | 0.9 | 0.9 | 0.00 | 0.00 | 0.00 | 46 | 1012.4 |
| 20260505121728 | 62 | 181 | 0.0 | 0.0 | 0.00 | 0.00 | 0.00 | 46 | 1012.1 |
| 20260505121225 | 62 | 29 | 2.6 | 2.6 | 0.00 | 0.00 | 0.00 | 46 | 1012.3 |
| 20260505120721 | 62 | 22 | 2.6 | 2.6 | 0.00 | 0.00 | 0.00 | 45 | 1012.4 |
| 20260505120217 | 62 | 241 | 0.9 | 0.9 | 0.00 | 0.00 | 0.00 | 46 | 1012.4 |
| 20260505115716 | 62 | 32 | 3.5 | 4.3 | 0.00 | 0.00 | 0.00 | 46 | 1012.3 |
| 20260505115214 | 64 | 167 | 4.3 | 7.0 | 0.00 | 0.00 | 0.00 | 45 | 1012.3 |
| 20260505114711 | 64 | 101 | 0.9 | 0.9 | 0.00 | 0.00 | 0.00 | 45 | 1012.4 |
| 20260505114207 | 62 | 258 | 0.0 | 0.0 | 0.00 | 0.00 | 0.00 | 47 | 1012.4 |